Vertical_Velocity
2 3 8 14 -4 -1 -21 -45 19 -16 -15 1 7 -1 0 9 14 -4 9 2 1 0 -1 1 1 1 0 -1 -0 -1 -2 0 1 -1 -1 -2 -0 -0 0 0 -0 -0 -0 -1 -1 -1 -1 -1 -0
10 10 8 13 -2 -11 -48 40 -27 16 21 -1 2 2 6 -1 7 1 7 2 1 -1 -1 -0 -1 1 1 -1 0 -0 -2 -0 -0 2 -2 -2 -2 -0 0 1 -1 -1 -0 -1 -1 -1 -0 -2 -1
9 12 12 -5 3 -6 -41 14 1 10 8 0 -0 6 0 -23 4 -1 5 3 2 1 -1 1 -1 -1 1 -1 -1 0 -0 -0 -1 0 -2 -3 -2 -1 -0 0 -1 -0 -2 -0 -0 -1 -0 -0 0
-1 10 13 -1 4 5 -12 11 4 1 -7 2 9 6 1 6 5 3 0 1 1 -2 -2 1 -1 -0 1 -0 -0 -0 0 -1 -2 1 -1 -2 -3 -1 -0 -1 -0 -0 -0 0 -1 -0 -2 -0 -1
8 9 4 4 12 5 21 13 2 6 13 5 -4 -3 -5 -4 2 1 3 -1 1 -1 -2 0 0 -1 1 1 -1 0 -0 -0 -1 2 0 -0 -2 -2 -2 -1 -1 -0 -0 -1 -0 0 1 -0 -1
2 10 6 -7 38 -5 -1 0 3 14 9 1 -2 0 6 0 0 1 3 -1 1 -2 -1 -2 -1 -0 -0 1 -2 -1 -1 -1 -0 -1 1 0 -1 -1 -1 -1 -2 -0 -2 -1 -2 -1 1 -1 -0
-0 7 -1 -0 -6 2 14 12 -1 7 8 -11 12 -2 2 26 4 -2 1 -0 -0 -2 -0 -2 -1 -0 -1 0 -1 -1 -0 0 -0 -0 -0 -0 -0 -1 -0 -1 -1 -1 -1 -0 -1 -0 -0 1 -1
2 5 3 -4 22 4 29 1 3 -3 -3 3 5 -21 -5 19 -1 -0 -1 1 -1 -2 0 -0 -2 -1 -1 -1 -0 -0 -1 -1 -1 0 -0 0 0 -0 -1 -1 -1 1 1 -1 0 -1 -2 0 1
2 7 -4 -0 2 28 37 14 -1 -1 29 -11 -0 -9 8 8 24 1 -0 -1 1 -1 1 2 1 -1 -0 -2 0 -0 0 -1 -2 -0 -0 1 -0 -1 -0 -1 -1 -0 -1 -1 -1 -1 -0 -1 -0
-2 2 0 3 5 11 10 -7 30 -8 -5 -8 -4 1 7 -7 20 149 -4 -1 2 6 7 4 3 1 -0 -1 -0 0 0 1 0 -1 -1 -0 1 -0 -0 -1 -1 -0 -0 -1 -1 -1 -1 -1 -1
4 6 3 4 9 -2 10 -4 20 -8 -13 0 1 4 -4 6 -14 93 -10 25 12 10 9 5 4 2 3 -0 1 0 -0 0 -0 0 -1 -0 -1 -0 -1 -0 -0 -1 -2 -2 -1 -0 -0 -0 -0
6 -1 2 20 32 -3 3 15 -10 8 7 -2 9 9 2 2 33 76 68 8 10 7 4 8 4 4 2 1 -2 -1 1 0 -0 -0 -0 -1 -1 -2 -2 -1 -1 -0 -0 -1 -1 0 -1 -1 -0
4 -2 9 4 9 -2 1 3 -0 -6 -14 -3 12 -4 -2 -9 -4 12 41 27 25 7 -1 6 5 5 3 2 1 1 1 0 -0 -0 -0 -1 -1 -0 -0 1 0 0 -0 -1 -0 0 0 0 -1
-1 -3 0 7 17 27 3 -1 -4 -3 -5 4 1 5 1 8 -17 10 39 20 3 5 3 4 3 4 7 5 3 2 1 1 0 -1 1 1 1 2 1 0 -0 1 1 -0 1 -1 -0 -0 -1
-1 -6 -1 2 3 4 -0 -7 4 -8 -2 4 15 2 -2 -1 -6 8 17 20 56 2 4 1 -3 3 2 2 -0 -0 -0 1 0 -0 -0 0 -1 -1 -1 0 -0 -1 -1 -1 -0 -1 -1 -2 -2
2 -5 -3 3 -2 6 -4 7 -0 -1 5 9 10 5 8 -6 -12 -8 6 -10 10 18 4 7 2 2 4 3 3 -0 2 2 -0 0 -0 -1 -1 0 -0 0 1 2 1 -2 -0 -0 -1 -2 -2
-8 2 -1 -1 12 14 -1 -2 -0 -3 -1 2 1 5 13 -10 -19 -6 -8 -4 -2 22 2 2 5 5 3 -1 3 1 -0 -2 2 1 -1 0 -0 0 0 -0 -0 1 -1 -1 -0 0 0 0 1
-3 4 3 8 -1 8 -0 -0 -7 -5 0 3 1 10 8 0 -10 -4 -12 29 14 7 9 -6 -3 3 -5 -1 3 1 2 -0 2 2 2 -1 2 1 1 -0 -1 -1 -1 -1 -0 0 -1 -2 -1
-6 1 -0 8 1 -3 -1 -1 -2 -2 -3 1 17 2 8 -12 3 4 10 7 -1 24 12 27 10 -2 4 4 2 3 1 1 2 -1 -6 -2 2 -1 -3 -2 0 -2 -1 2 -1 -1 -2 0 1
5 -3 -8 -5 -2 -3 -1 -1 1 -3 -5 -4 -2 13 5 24 5 18 10 -5 12 4 21 11 15 3 -1 4 -0 1 -4 3 -4 -7 -3 1 -2 -4 -1 -5 -3 -2 1 -3 -3 -0 0 -2 1
-3 -2 -1 1 -5 -2 -4 0 0 1 -2 -6 -4 -6 -13 7 4 -4 2 12 19 1 4 0 11 -0 2 -6 1 4 4 5 -4 3 2 2 -1 1 -1 -0 2 0 -2 -2 0 -6 -2 2 1
-2 2 1 -7 0 -8 3 -5 -1 5 -3 -5 -8 -2 -4 -7 -2 4 6 4 19 11 29 15 11 19 4 4 9 10 8 10 -0 4 1 -1 -3 -2 7 3 13 6 10 -2 4 -4 -2 10 7
-4 0 -2 4 0 -3 -8 5 -8 7 1 -11 1 2 -2 -2 7 7 6 -2 -15 -3 2 3 20 19 9 4 28 26 2 11 18 7 8 1 0 7 1 -3 16 11 7 5 14 12 8 12 4
2 -1 -1 1 0 -0 -12 1 2 5 14 16 -7 -10 -11 -7 0 0 2 12 -12 9 1 10 7 9 13 27 16 9 13 20 35 29 4 17 10 7 21 8 18 16 17 8 3 -5 -5 -4 8
4 5 -2 -4 -3 1 2 -4 13 9 -7 -6 3 1 2 -2 -8 -3 3 -1 -6 -2 10 -0 -2 -5 5 18 -15 -6 -3 4 37 11 3 8 -1 2 6 2 12 10 6 -0 1 1 -2 3 -2
4 -1 6 -5 -7 -2 1 -3 -2 7 10 -10 -3 12 1 -3 -1 -2 -2 -1 0 2 -7 -3 -10 -3 -3 -1 -2 -4 10 12 -1 -1 0 5 1 -6 4 5 -8 1 -1 -3 -0 -2 2 1 2
5 -0 5 2 -1 1 -10 2 6 -0 7 5 -7 -11 -4 -4 -7 -2 -8 -9 -8 -7 -6 -6 -4 3 -0 3 -1 -1 2 -3 8 -7 -3 -11 -5 -5 -10 -1 -3 -1 -4 -3 -1 -1 3 -1 1
1 0 4 1 0 -1 -2 3 -0 -2 7 8 6 -4 -5 3 6 -6 -3 8 2 -2 -3 -2 -5 -4 -1 -1 -9 -4 3 -4 5 -3 1 -0 -6 -1 4 -3 -3 -4 -2 -1 0 -1 1 1 2
1 1 5 27 -2 7 1 4 1 5 3 8 4 4 -6 -3 -0 4 2 1 10 7 1 6 5 5 -0 3 3 -2 -1 -2 1 2 -1 0 -0 2 -1 -1 -2 -4 -1 -1 4 2 -1 -2 3
2 -2 -5 -0 6 20 2 0 5 1 -1 -1 0 6 6 4 -4 -3 -2 5 -3 -0 7 2 2 1 -1 -0 -0 -4 -2 1 -1 2 -3 -5 -0 1 -3 -3 -1 2 1 0 -1 -2 -1 -1 -2
Height
5746 5742 5743 5741 5740 5735 5743 5766 5781 5786 5796 5808 5816 5822 5830 5833 5841 5847 5850 5854 5858 5863 5865 5869 5872 5875 5877 5879 5880 5882 5883 5884 5884 5885 5887 5887 5887 5888 5887 5887 5887 5887 5887 5886 5886 5885 5885 5885 5885
5719 5716 5717 5716 5709 5715 5733 5760 5762 5778 5788 5797 5807 5814 5820 5826 5834 5840 5845 5850 5854 5858 5861 5865 5868 5872 5874 5876 5878 5880 5881 5882 5883 5883 5885 5885 5886 5887 5887 5887 5887 5886 5886 5886 5885 5885 5885 5885 5885
5690 5690 5690 5688 5690 5694 5729 5742 5753 5765 5775 5786 5797 5804 5808 5814 5826 5834 5839 5844 5848 5853 5857 5861 5864 5867 5871 5872 5875 5877 5879 5880 5882 5882 5883 5884 5885 5885 5886 5886 5885 5885 5886 5885 5885 5885 5885 5885 5884
5658 5658 5659 5662 5675 5689 5718 5728 5741 5752 5761 5775 5786 5792 5800 5810 5820 5827 5834 5838 5843 5848 5852 5857 5860 5863 5867 5868 5871 5874 5876 5877 5879 5880 5880 5882 5883 5884 5884 5885 5885 5884 5884 5884 5885 5884 5885 5885 5885
5636 5640 5642 5650 5670 5684 5703 5713 5726 5740 5754 5764 5772 5783 5793 5803 5814 5821 5829 5834 5838 5843 5848 5853 5855 5859 5862 5864 5867 5870 5873 5874 5876 5877 5878 5879 5881 5882 5883 5883 5884 5883 5883 5884 5884 5884 5884 5884 5885
5621 5628 5632 5643 5663 5679 5690 5703 5716 5728 5742 5754 5764 5774 5786 5798 5807 5816 5822 5828 5833 5838 5843 5848 5851 5854 5858 5860 5863 5866 5869 5871 5873 5874 5875 5877 5878 5879 5880 5881 5882 5882 5882 5882 5882 5883 5883 5883 5884
5613 5620 5630 5647 5659 5667 5678 5693 5702 5715 5730 5739 5757 5766 5779 5790 5801 5809 5816 5822 5828 5832 5838 5844 5846 5849 5853 5856 5859 5862 5865 5867 5870 5872 5873 5874 5875 5876 5878 5879 5880 5881 5881 5881 5881 5881 5882 5882 5883
5611 5620 5630 5643 5654 5664 5678 5684 5696 5708 5719 5736 5749 5755 5766 5780 5793 5803 5809 5816 5822 5827 5832 5838 5842 5845 5848 5852 5854 5857 5860 5864 5866 5868 5870 5871 5872 5874 5875 5877 5878 5878 5879 5879 5879 5880 5880 5881 5881
5611 5619 5628 5640 5650 5659 5668 5675 5686 5700 5718 5722 5738 5746 5764 5775 5786 5796 5801 5807 5814 5821 5827 5831 5836 5840 5843 5847 5850 5854 5856 5859 5862 5864 5866 5868 5868 5870 5871 5873 5875 5875 5876 5876 5877 5878 5878 5878 5879
5611 5619 5628 5638 5646 5655 5661 5670 5683 5693 5703 5716 5729 5741 5756 5765 5777 5773 5792 5800 5806 5813 5820 5824 5830 5834 5838 5843 5846 5849 5851 5855 5857 5860 5862 5864 5865 5866 5867 5869 5871 5872 5872 5873 5874 5875 5875 5875 5875
5614 5621 5631 5643 5650 5652 5661 5669 5678 5685 5700 5717 5732 5737 5750 5760 5767 5754 5781 5793 5802 5805 5811 5818 5823 5828 5833 5837 5842 5844 5847 5850 5853 5855 5857 5859 5862 5863 5863 5864 5866 5868 5870 5870 5870 5871 5872 5872 5872
5615 5622 5629 5639 5643 5654 5659 5668 5674 5687 5704 5713 5725 5735 5744 5749 5754 5757 5765 5777 5788 5796 5804 5810 5815 5821 5826 5831 5836 5840 5842 5845 5848 5850 5852 5854 5856 5858 5860 5862 5863 5863 5865 5866 5867 5867 5868 5868 5869
5619 5624 5630 5636 5645 5655 5659 5664 5674 5680 5694 5710 5717 5724 5731 5731 5738 5739 5743 5758 5771 5782 5793 5801 5808 5813 5820 5824 5829 5834 5837 5839 5842 5844 5848 5849 5852 5854 5856 5857 5859 5860 5861 5862 5863 5863 5864 5865 5865
5623 5627 5629 5638 5644 5649 5654 5659 5668 5681 5691 5701 5708 5716 5724 5731 5734 5738 5741 5745 5762 5773 5783 5793 5800 5806 5812 5818 5823 5828 5831 5834 5838 5840 5842 5845 5847 5850 5851 5853 5855 5856 5857 5857 5858 5858 5859 5860 5860
5627 5631 5632 5637 5643 5648 5655 5663 5672 5678 5687 5696 5703 5712 5722 5724 5729 5727 5739 5751 5764 5765 5774 5783 5793 5800 5807 5812 5816 5820 5825 5828 5832 5834 5837 5839 5841 5844 5847 5849 5850 5851 5853 5853 5853 5853 5854 5854 5855
5633 5637 5638 5644 5648 5652 5656 5664 5668 5676 5686 5693 5702 5712 5719 5724 5725 5730 5740 5749 5757 5759 5765 5773 5784 5792 5800 5806 5810 5814 5818 5822 5826 5829 5831 5834 5837 5838 5842 5844 5845 5846 5847 5848 5848 5849 5850 5850 5851
5642 5645 5647 5649 5650 5655 5657 5660 5667 5674 5682 5690 5701 5709 5714 5722 5727 5735 5742 5751 5751 5755 5757 5765 5774 5784 5791 5799 5803 5808 5812 5815 5819 5822 5825 5828 5830 5833 5835 5837 5838 5839 5841 5843 5842 5843 5845 5845 5845
5647 5649 5651 5652 5653 5653 5656 5658 5664 5671 5678 5686 5697 5705 5711 5719 5725 5736 5740 5743 5746 5749 5754 5759 5767 5775 5782 5790 5796 5800 5805 5809 5812 5816 5819 5823 5825 5826 5829 5830 5833 5835 5835 5836 5836 5837 5838 5839 5838
5648 5647 5648 5649 5650 5654 5656 5659 5663 5669 5674 5683 5692 5700 5708 5716 5722 5730 5735 5741 5745 5750 5751 5758 5762 5766 5775 5782 5788 5794 5797 5801 5804 5808 5811 5815 5816 5819 5823 5824 5826 5827 5828 5830 5830 5830 5832 5832 5832
5648 5651 5650 5652 5654 5654 5655 5658 5662 5669 5674 5682 5688 5693 5700 5705 5716 5723 5732 5738 5740 5746 5750 5753 5757 5761 5766 5774 5781 5785 5787 5790 5794 5798 5803 5808 5812 5813 5813 5817 5819 5820 5822 5824 5824 5825 5826 5825 5825
5647 5647 5648 5650 5654 5656 5655 5659 5660 5665 5672 5681 5687 5692 5697 5702 5708 5716 5722 5729 5735 5740 5744 5749 5753 5757 5763 5768 5772 5777 5783 5788 5790 5793 5797 5801 5804 5807 5809 5811 5813 5813 5814 5816 5818 5819 5819 5818 5816
5645 5645 5644 5648 5650 5652 5654 5658 5658 5663 5670 5678 5684 5690 5695 5700 5704 5711 5716 5719 5723 5730 5737 5740 5748 5755 5759 5763 5770 5776 5777 5780 5783 5786 5789 5794 5797 5800 5802 5804 5804 5806 5806 5809 5810 5811 5811 5810 5809
5639 5640 5641 5643 5645 5649 5652 5657 5656 5659 5665 5674 5679 5685 5691 5696 5700 5704 5709 5713 5718 5720 5732 5737 5741 5746 5753 5755 5764 5769 5772 5775 5780 5783 5785 5787 5790 5794 5797 5799 5799 5801 5800 5802 5803 5802 5802 5802 5801
5631 5632 5633 5634 5637 5646 5649 5653 5655 5656 5659 5668 5674 5679 5683 5689 5695 5702 5706 5711 5716 5718 5723 5729 5734 5739 5741 5747 5754 5758 5762 5770 5767 5775 5775 5782 5785 5788 5790 5792 5794 5794 5794 5795 5796 5796 5796 5794 5793
5620 5621 5623 5627 5630 5637 5642 5647 5652 5651 5652 5656 5666 5674 5678 5682 5688 5695 5702 5707 5710 5715 5718 5722 5728 5733 5737 5738 5744 5748 5755 5760 5759 5763 5770 5773 5776 5780 5783 5785 5784 5785 5787 5788 5788 5789 5787 5787 5787
5609 5613 5615 5617 5622 5629 5634 5640 5645 5647 5646 5647 5655 5665 5671 5677 5681 5685 5693 5700 5705 5709 5716 5720 5725 5729 5733 5735 5739 5744 5749 5748 5751 5755 5759 5763 5765 5770 5773 5775 5778 5780 5781 5782 5781 5781 5780 5778 5778
5603 5605 5608 5611 5613 5618 5625 5634 5637 5641 5642 5643 5646 5656 5662 5668 5676 5679 5684 5689 5697 5703 5707 5712 5717 5723 5727 5731 5734 5739 5740 5744 5746 5751 5753 5756 5760 5763 5765 5768 5771 5773 5773 5773 5772 5772 5772 5771 5770
5596 5600 5604 5607 5610 5613 5619 5626 5628 5633 5637 5639 5640 5645 5655 5662 5668 5672 5679 5683 5686 5692 5698 5704 5709 5714 5718 5722 5727 5731 5733 5736 5740 5742 5746 5749 5752 5755 5757 5759 5762 5763 5763 5764 5764 5763 5762 5762 5760
5591 5595 5598 5602 5606 5609 5613 5618 5622 5625 5630 5634 5636 5639 5646 5653 5660 5665 5670 5676 5680 5684 5689 5696 5700 5704 5708 5713 5717 5720 5724 5727 5731 5734 5737 5740 5742 5745 5747 5749 5751 5752 5753 5753 5753 5753 5753 5751 5750
5587 5588 5593 5596 5601 5605 5609 5614 5616 5619 5623 5627 5631 5634 5637 5644 5650 5655 5663 5668 5674 5678 5680 5685 5691 5695 5700 5704 5707 5710 5714 5719 5722 5725 5728 5730 5732 5735 5737 5739 5740 5741 5742 5742 5743 5742 5742 5741 5739